Change the Weather History Date:

Thursday, July 18, 2013

  Actual Average Record
Temperature  
Mean Temperature 80 °F 75 °F  
Max Temperature 99 °F 90 °F 104 °F (1998)
Min Temperature 61 °F 59 °F 48 °F (1906)
Degree Days  
Heating Degree Days 0 0  
Month to date heating degree days 0 1  
Since 1 June heating degree days 21 61  
Since 1 July heating degree days 0 1  
Cooling Degree Days 15 10  
Month to date cooling degree days 207 160  
Year to date cooling degree days 456 309  
Since 1 June cooling degree days 402 286  
Growing Degree Days 30 (Base 50)    
Moisture  
Dew Point 57 °F    
Average Humidity 53    
Maximum Humidity 84    
Minimum Humidity 22    
Precipitation  
Precipitation 0.12 in 0.06 in 2.16 in (1957)
Month to date precipitation 0.74 1.08  
Year to date precipitation 6.92 10.25  
Snow  
Snow 0.00 in 0.00 in - ()
Month to date snowfall 0.0 0.0  
Since 1 July snowfall 0.0 0.0  
Snow Depth 0.00 in    
Sea Level Pressure  
Sea Level Pressure 29.92 in    
Wind  
Wind Speed 7 mph (ESE)    
Max Wind Speed 20 mph    
Max Gust Speed 26 mph    
Visibility 9 miles    
Events Thunderstorm    
T = Trace of Precipitation, MM = Missing Value Source: NWS Daily Summary

Daily Weather History Graph

Daily Weather History Graph

Search for Another Location

Airport or City:

Trip Planner

Search our weather history database for the weather conditions in past years. The results will help you decide how hot, cold, wet, or windy it might be!

Date:

Astronomy

Jul. 18, 2013 Rise Set
Actual Time 5:35 AM MDT 8:25 PM MDT
Civil Twilight 5:02 AM MDT 8:58 PM MDT
Nautical Twilight 4:20 AM MDT 9:39 PM MDT
Astronomical Twilight 3:32 AM MDT 10:27 PM MDT
Moon 4:24 PM MDT (7/18) 1:28 AM MDT (7/18)
Length of Visible Light 15h 56m
Length of Day
14h 50m
Waxing Gibbous, 78% of the Moon is Illuminated
Jul 18
Waxing Gibbous
Jul 22
Full
Jul 29
Last Quarter
Aug 6
New
Aug 14
First Quarter

Hourly Weather History & Observations

Time (MDT) Temp. Heat Index Dew Point Humidity Pressure Visibility Wind Dir Wind Speed Gust Speed Precip Events Conditions
12:53 AM 75.0 °F - 55.0 °F 50% 29.97 in 10.0 mi ESE 11.5 mph - N/A   Clear
1:53 AM 73.9 °F - 55.0 °F 52% 29.94 in 10.0 mi SSE 17.3 mph - N/A   Clear
2:53 AM 71.1 °F - 55.9 °F 59% 29.94 in 10.0 mi SE 8.1 mph - N/A   Clear
3:53 AM 66.0 °F - 57.0 °F 73% 29.94 in 10.0 mi ESE 8.1 mph - N/A   Clear
4:53 AM 63.0 °F - 57.0 °F 81% 29.94 in 10.0 mi East 5.8 mph - N/A   Clear
5:53 AM 62.1 °F - 57.0 °F 84% 29.94 in 10.0 mi ESE 5.8 mph - N/A   Clear
6:53 AM 66.0 °F - 57.9 °F 75% 29.94 in 10.0 mi SE 10.4 mph - N/A   Clear
7:53 AM 71.1 °F - 57.9 °F 63% 29.95 in 10.0 mi North - - N/A   Clear
8:53 AM 73.9 °F - 57.9 °F 57% 29.95 in 10.0 mi South 4.6 mph - N/A   Clear
9:53 AM 78.1 °F - 57.0 °F 48% 29.94 in 10.0 mi North - - N/A   Clear
10:53 AM 82.9 °F 82.6 °F 57.9 °F 42% 29.92 in 10.0 mi Variable 3.5 mph - N/A   Clear
11:53 AM 86.0 °F 85.0 °F 57.9 °F 38% 29.91 in 10.0 mi West 9.2 mph - N/A   Clear
12:53 PM 87.1 °F 86.1 °F 57.9 °F 37% 29.90 in 10.0 mi Calm Calm - N/A   Clear
1:53 PM 91.9 °F 90.6 °F 57.0 °F 31% 29.86 in 10.0 mi SSW 4.6 mph - N/A   Clear
2:53 PM 95.0 °F 93.0 °F 55.0 °F 26% 29.84 in 10.0 mi Variable 3.5 mph - N/A   Clear
3:53 PM 98.1 °F 96.1 °F 54.0 °F 23% 29.83 in 10.0 mi NW 3.5 mph - N/A   Clear
4:53 PM 97.0 °F - 52.0 °F 22% 29.82 in 4.0 mi Variable 4.6 mph - N/A   Haze
5:15 PM 95.0 °F - 51.8 °F 23% 29.98 in 1.8 mi NW 3.5 mph - N/A   Haze
5:27 PM 96.8 °F - 51.8 °F 22% 29.98 in 4.0 mi East 4.6 mph - N/A   Haze
5:53 PM 93.0 °F 92.7 °F 60.1 °F 33% 29.82 in 10.0 mi East 11.5 mph - 0.04 in   Scattered Clouds
6:53 PM 93.0 °F 91.7 °F 57.0 °F 30% 29.82 in 10.0 mi East 6.9 mph - 0.07 in   Scattered Clouds
7:53 PM 82.9 °F 82.6 °F 57.9 °F 42% 29.85 in 10.0 mi East 9.2 mph - N/A   Partly Cloudy
8:53 PM 79.0 °F - 59.0 °F 50% 29.88 in 10.0 mi ENE 6.9 mph - N/A   Clear
9:53 PM 84.0 °F 83.3 °F 57.0 °F 40% 29.90 in 10.0 mi ENE 8.1 mph - N/A Thunderstorm Partly Cloudy
10:11 PM 82.4 °F 82.0 °F 57.2 °F 42% 30.07 in 10.0 mi West 6.9 mph - N/A   Mostly Cloudy
10:53 PM 78.1 °F - 61.0 °F 56% 29.93 in 10.0 mi WNW 10.4 mph 20.7 mph 0.00 in Thunderstorm Thunderstorm
11:09 PM 75.2 °F - 60.8 °F 61% 30.09 in 10.0 mi WNW 11.5 mph - N/A   Mostly Cloudy
11:53 PM 73.9 °F - 60.1 °F 62% 29.94 in 10.0 mi WNW 8.1 mph - N/A   Scattered Clouds